EW2817 Weather Reports


time (UTC)temp
C
wind
direction
speed
KPH
gust
KPH
rain 1hr
cm
rain 24hr
cm
rain mn
cm
humidity
%
barometer
mb
20260509040247 14 0 0.0 0.0 0.00 0.00 0.00 73 991.2
20260509033246 14 0 0.0 0.0 0.00 0.00 0.00 72 991.2
20260509031745 14 0 0.0 0.0 0.00 0.00 0.00 71 991.2
20260509030242 14 0 0.0 0.0 0.00 0.00 0.00 69 991.4
20260509024742 14 0 0.0 0.0 0.00 0.00 0.00 70 991.6
20260509023239 14 0 0.0 0.0 0.00 0.00 0.00 69 991.8
20260509020238 15 0 0.0 0.0 0.00 0.00 0.00 69 991.8
20260509013237 15 0 0.0 0.0 0.00 0.00 0.00 70 991.7
20260509011732 15 0 0.0 0.0 0.00 0.00 0.00 69 991.5
20260509010232 15 0 0.0 0.0 0.00 0.00 0.00 67 991.4
20260509004732 15 0 0.0 0.0 0.00 0.00 0.00 68 991.1
20260509003231 16 0 0.0 0.0 0.00 0.00 0.00 67 991.1
20260509001728 16 0 0.0 0.0 0.00 0.00 0.00 65 990.9
20260509000227 17 0 0.0 0.0 0.00 0.00 0.00 62 991.0
20260508234728 18 0 0.0 0.0 0.00 0.00 0.00 63 991.1
20260508233228 18 0 0.0 0.0 0.00 0.00 0.00 59 990.9
20260508231726 18 0 0.0 0.0 0.00 0.00 0.00 58 990.9
20260508224725 19 0 0.0 0.0 0.00 0.00 0.00 52 990.7
20260508223224 19 0 0.0 0.0 0.00 0.00 0.00 54 990.6
20260508221725 20 0 0.0 0.0 0.00 0.00 0.00 44 990.5
20260508220222 20 0 0.0 0.0 0.00 0.00 0.00 52 990.7
20260508214717 20 0 0.0 0.0 0.00 0.00 0.00 46 990.5
20260508211716 20 0 0.0 0.0 0.00 0.00 0.00 44 990.6
20260508210216 20 0 0.0 0.0 0.00 0.00 0.00 41 990.7
20260508204714 20 0 0.0 0.0 0.00 0.00 0.00 43 991.1
20260508203213 20 0 0.0 0.0 0.00 0.00 0.00 41 991.1
20260508201712 20 0 0.0 0.0 0.00 0.00 0.00 44 991.0
20260508194710 21 0 0.0 0.0 0.00 0.00 0.00 40 991.3
20260508191727 21 0 0.0 0.0 0.00 0.03 0.00 43 991.7
20260508190211 21 0 0.0 0.0 0.00 0.05 0.00 43 991.9
20260508184712 21 0 0.0 0.0 0.00 0.10 0.00 44 992.1
20260508183212 21 0 0.0 0.0 0.00 0.13 0.00 44 992.3
20260508181703 21 0 0.0 0.0 0.00 0.18 0.00 44 992.4
20260508174701 21 0 0.0 0.0 0.00 0.25 0.00 47 992.9
20260508173159 21 0 0.0 0.0 0.00 0.28 0.00 46 993.0
20260508171659 20 0 0.0 0.0 0.00 0.38 0.00 44 993.1
20260508170157 21 0 0.0 0.0 0.00 0.41 0.00 48 993.3
20260508164659 20 0 0.0 0.0 0.00 0.43 0.00 46 993.6
20260508163157 20 0 0.0 0.0 0.00 0.48 0.00 50 993.8
20260508160156 18 0 0.0 0.0 0.00 0.56 0.00 53 994.1
20260508154655 18 0 0.0 0.0 0.00 0.58 0.00 67 994.2
20260508153154 18 0 0.0 0.0 0.00 0.61 0.00 62 994.5
20260508151653 17 0 0.0 0.0 0.00 0.64 0.00 69 994.6
20260508150151 17 0 0.0 0.0 0.00 0.66 0.00 65 994.6
20260508144650 16 0 0.0 0.0 0.00 0.69 0.00 68 994.5
20260508143151 15 0 0.0 0.0 0.00 0.71 0.00 78 994.4
20260508141649 13 0 0.0 0.0 0.00 0.74 0.00 84 994.3
20260508140149 12 0 0.0 0.0 0.00 0.76 0.00 93 994.2
20260508134648 11 0 0.0 0.0 0.00 0.79 0.00 96 994.1
20260508133145 10 0 0.0 0.0 0.00 0.84 0.00 96 994.0
20260508131642 10 0 0.0 0.0 0.00 0.86 0.00 96 993.9
20260508130142 10 0 0.0 0.0 0.00 0.89 0.00 96 993.9
20260508124640 9 0 0.0 0.0 0.00 0.91 0.00 96 994.0
20260508121640 8 0 0.0 0.0 0.00 0.97 0.00 96 993.6
20260508120138 8 0 0.0 0.0 0.00 0.97 0.00 96 993.4
20260508114637 8 0 0.0 0.0 0.00 0.99 0.00 96 993.2
20260508113133 8 0 0.0 0.0 0.00 1.02 0.00 96 993.1
20260508111626 8 0 0.0 0.0 0.00 1.04 0.00 96 992.8
20260508104626 8 0 0.0 0.0 0.00 1.07 0.00 96 992.4
20260508100126 8 0 0.0 0.0 0.00 1.14 0.00 96 991.6
20260508094624 8 0 0.0 0.0 0.00 1.14 0.00 96 991.5
20260508093125 9 0 0.0 0.0 0.00 1.17 0.00 96 991.6
20260508091620 9 0 0.0 0.0 0.00 1.17 0.00 96 991.4
20260508083111 10 0 0.0 0.0 0.00 1.19 0.00 96 990.7
20260508081609 10 0 0.0 0.0 0.00 1.19 0.00 96 990.7
20260508074608 10 0 0.0 0.0 0.00 1.22 0.00 96 990.5
20260508073108 10 0 0.0 0.0 0.00 1.22 0.00 96 990.2
20260508071605 10 0 0.0 0.0 0.00 1.22 0.00 96 990.0
20260508064601 10 0 0.0 0.0 0.00 1.22 0.00 96 990.0
20260508063059 10 0 0.0 0.0 0.00 1.24 0.00 96 990.0
20260508061557 10 0 0.0 0.0 0.00 1.24 0.00 96 990.1
20260508060057 10 0 0.0 0.0 0.00 1.24 0.00 96 990.0
20260508054558 10 0 0.0 0.0 0.00 1.24 0.00 96 990.2
20260508051558 10 0 0.0 0.0 0.00 1.27 0.00 96 990.3
20260508050050 10 0 0.0 0.0 0.00 1.27 0.00 96 990.0
20260508044547 10 0 0.0 0.0 0.00 1.30 0.00 96 990.0
20260508043047 10 0 0.0 0.0 0.00 1.30 0.00 96 989.8
20260508041546 11 0 0.0 0.0 0.00 1.32 0.00 96 989.8